| time (UTC) | temp F | wind direction | speed MPH | gust MPH | rain 1hr in | rain 24hr in | rain mn in | humidity % | barometer mb |
| 20260505165046 | 50 | 0 | 0.0 | 0.0 | 0.01 | 0.04 | 0.02 | 99 | 1010.2 |
| 20260505164046 | 51 | 0 | 0.0 | 0.0 | 0.00 | 0.04 | 0.02 | 99 | 1010.2 |
| 20260505163049 | 51 | 0 | 0.0 | 0.0 | 0.00 | 0.05 | 0.02 | 99 | 1010.1 |
| 20260505161045 | 51 | 0 | 0.0 | 0.0 | 0.00 | 0.05 | 0.02 | 99 | 1010.2 |
| 20260505124047 | 51 | 0 | 0.0 | 0.0 | 0.00 | 0.31 | 0.02 | 10 | 1011.1 |
| 20260505121047 | 51 | 0 | 0.0 | 0.0 | 0.00 | 0.31 | 0.02 | 10 | 1011.1 |
| 20260505115047 | 51 | 0 | 0.0 | 0.0 | 0.00 | 0.31 | 0.02 | 10 | 1011.1 |
| 20260505114046 | 51 | 0 | 0.0 | 0.0 | 0.00 | 0.31 | 0.02 | 10 | 1011.2 |
| 20260505113048 | 51 | 0 | 0.0 | 0.0 | 0.00 | 0.31 | 0.02 | 10 | 1011.2 |
| 20260505090047 | 51 | 0 | 0.0 | 0.0 | 0.01 | 0.31 | 0.02 | 10 | 1011.6 |
| 20260505084045 | 52 | 0 | 0.0 | 0.0 | 0.01 | 0.31 | 0.02 | 10 | 1011.6 |
| 20260505083044 | 52 | 0 | 0.0 | 0.0 | 0.00 | 0.30 | 0.01 | 10 | 1011.7 |
| 20260505082043 | 52 | 0 | 0.0 | 0.0 | 0.00 | 0.30 | 0.01 | 10 | 1011.6 |
| 20260505072043 | 53 | 0 | 0.0 | 0.0 | 0.00 | 0.30 | 0.01 | 10 | 1011.6 |
| 20260505065043 | 53 | 0 | 0.0 | 0.0 | 0.01 | 0.30 | 0.01 | 10 | 1011.7 |
| 20260505063040 | 53 | 0 | 0.0 | 0.0 | 0.01 | 0.30 | 0.01 | 10 | 1011.7 |
| 20260505061046 | 53 | 0 | 0.0 | 0.0 | 0.01 | 0.30 | 0.01 | 10 | 1011.7 |
| 20260505060041 | 53 | 0 | 0.0 | 0.0 | 0.01 | 0.30 | 0.01 | 10 | 1011.8 |
| 20260505055046 | 53 | 0 | 0.0 | 0.0 | 0.00 | 0.29 | 0.00 | 10 | 1011.9 |
| 20260505054045 | 53 | 0 | 0.0 | 0.0 | 0.00 | 0.29 | 0.00 | 10 | 1011.9 |
| 20260505053042 | 53 | 0 | 0.0 | 0.0 | 0.00 | 0.29 | 0.00 | 10 | 1011.9 |
| 20260505051044 | 52 | 0 | 0.0 | 0.0 | 0.00 | 0.29 | 0.00 | 10 | 1011.8 |
| 20260505041046 | 52 | 0 | 0.0 | 0.0 | 0.00 | 0.29 | 0.00 | 10 | 1011.8 |
| 20260505040043 | 52 | 0 | 0.0 | 0.0 | 0.00 | 0.29 | 0.00 | 10 | 1011.9 |
| 20260505035043 | 51 | 0 | 0.0 | 0.0 | 0.00 | 0.29 | 0.00 | 10 | 1011.9 |
| 20260505033044 | 52 | 0 | 0.0 | 0.0 | 0.00 | 0.29 | 0.00 | 10 | 1012.1 |
| 20260505032046 | 52 | 0 | 0.0 | 0.0 | 0.00 | 0.29 | 0.00 | 10 | 1012.2 |
| 20260505031045 | 52 | 0 | 0.0 | 0.0 | 0.00 | 0.29 | 0.00 | 10 | 1012.3 |
| 20260505025044 | 52 | 0 | 0.0 | 0.0 | 0.00 | 0.29 | 0.00 | 10 | 1012.4 |
| 20260505024044 | 51 | 0 | 0.0 | 0.0 | 0.00 | 0.29 | 0.00 | 10 | 1012.4 |
| 20260505023046 | 51 | 0 | 0.0 | 0.0 | 0.00 | 0.29 | 0.00 | 10 | 1012.5 |
| 20260505021045 | 51 | 0 | 0.0 | 0.0 | 0.00 | 0.29 | 0.00 | 10 | 1012.5 |
| 20260505020048 | 51 | 0 | 0.0 | 0.0 | 0.00 | 0.29 | 0.00 | 10 | 1012.5 |
| 20260505012043 | 52 | 0 | 0.0 | 0.0 | 0.00 | 0.29 | 0.00 | 10 | 1012.5 |
| 20260505011043 | 53 | 0 | 0.0 | 0.0 | 0.00 | 0.29 | 0.00 | 10 | 1012.5 |
| 20260505010042 | 52 | 0 | 0.0 | 0.0 | 0.00 | 0.29 | 0.00 | 10 | 1012.7 |
| 20260505005046 | 52 | 0 | 0.0 | 0.0 | 0.00 | 0.29 | 0.00 | 10 | 1012.9 |
| 20260505002044 | 52 | 0 | 0.0 | 0.0 | 0.00 | 0.29 | 0.00 | 10 | 1013.2 |
| 20260505001045 | 52 | 0 | 0.0 | 0.0 | 0.00 | 0.29 | 0.00 | 10 | 1013.1 |
| 20260505000044 | 52 | 0 | 0.0 | 0.0 | 0.00 | 0.29 | 0.00 | 10 | 1013.1 |
| 20260504230049 | 53 | 0 | 0.0 | 0.0 | 0.00 | 0.29 | 0.00 | 10 | 1013.6 |
| 20260504224047 | 53 | 0 | 0.0 | 0.0 | 0.00 | 0.29 | 0.00 | 99 | 1013.7 |
| 20260504221046 | 54 | 0 | 0.0 | 0.0 | 0.00 | 0.29 | 0.00 | 99 | 1014.0 |
| 20260504214053 | 54 | 0 | 0.0 | 0.0 | 0.01 | 0.29 | 0.29 | 99 | 1014.2 |
| 20260504213050 | 54 | 0 | 0.0 | 0.0 | 0.01 | 0.29 | 0.29 | 99 | 1014.3 |
| 20260504212053 | 54 | 0 | 0.0 | 0.0 | 0.01 | 0.29 | 0.29 | 99 | 1014.3 |
| 20260504211046 | 54 | 0 | 0.0 | 0.0 | 0.01 | 0.29 | 0.29 | 98 | 1014.3 |
| 20260504210049 | 54 | 0 | 0.0 | 0.0 | 0.01 | 0.29 | 0.29 | 98 | 1014.4 |
| 20260504204052 | 54 | 0 | 0.0 | 0.0 | 0.00 | 0.28 | 0.28 | 98 | 1014.5 |
| 20260504203052 | 54 | 0 | 0.0 | 0.0 | 0.00 | 0.28 | 0.28 | 97 | 1014.5 |
| 20260504202054 | 54 | 0 | 0.0 | 0.0 | 0.00 | 0.28 | 0.28 | 97 | 1014.5 |
| 20260504201051 | 55 | 0 | 0.0 | 0.0 | 0.00 | 0.28 | 0.28 | 97 | 1014.5 |
| 20260504200050 | 55 | 0 | 0.0 | 0.0 | 0.00 | 0.28 | 0.28 | 96 | 1014.5 |
| 20260504194047 | 55 | 0 | 0.0 | 0.0 | 0.00 | 0.28 | 0.28 | 95 | 1014.3 |
| 20260504192049 | 55 | 0 | 0.0 | 0.0 | 0.00 | 0.28 | 0.28 | 94 | 1014.1 |
| 20260504191049 | 56 | 0 | 0.0 | 0.0 | 0.00 | 0.28 | 0.28 | 93 | 1014.1 |
| 20260504185050 | 56 | 0 | 0.0 | 0.0 | 0.00 | 0.28 | 0.28 | 93 | 1014.0 |
| 20260504184046 | 57 | 0 | 0.0 | 0.0 | 0.00 | 0.28 | 0.28 | 94 | 1014.0 |
| 20260504183046 | 57 | 0 | 0.0 | 0.0 | 0.00 | 0.28 | 0.28 | 94 | 1014.0 |
| 20260504182049 | 57 | 0 | 0.0 | 0.0 | 0.00 | 0.28 | 0.28 | 94 | 1013.9 |
| 20260504175049 | 57 | 0 | 0.0 | 0.0 | 0.01 | 0.28 | 0.28 | 96 | 1014.0 |
| 20260504174046 | 57 | 0 | 0.0 | 0.0 | 0.02 | 0.28 | 0.28 | 96 | 1014.0 |
| 20260504173049 | 57 | 0 | 0.0 | 0.0 | 0.02 | 0.28 | 0.28 | 97 | 1014.1 |
| 20260504171048 | 56 | 0 | 0.0 | 0.0 | 0.02 | 0.28 | 0.28 | 97 | 1014.2 |